Terminal Aerodrome Forecast
Issued by NWS

Home | Current Version | Previous Version | Text Only | Print | Product List | Glossary On
Versions: 1 2 3 4 5 6 7 8 9 10 11 12 13 14 15 16 17 18 19 20 21 22 23
000
FTUS46 KSEW 070153 AAA
TAFHQM
TAF AMD
KHQM 070153Z 0702/0724 25008KT P6SM SCT010
      TEMPO 0702/0704 BKN010
     FM070400 22005KT P6SM OVC010
     FM070900 19006KT 5SM BR OVC010
     FM072000 24010KT P6SM BKN015=

USA.gov is the U.S. government's official web portal to all federal, state and local government web resources and services.